DW8587 Weather Reports


Display with metric or nautical units.
time (UTC)temp
F
wind
direction
speed
MPH
gust
MPH
rain 1hr
in
rain 24hr
in
rain mn
in
humidity
%
barometer
mb
20260905201542 76 355 2.0 4.0 0.00 0.00 0.00 75 1016.5
20260905200044 77 349 3.0 6.0 0.00 0.00 0.00 75 1016.4
20260905194539 78 44 3.0 6.0 0.00 0.00 0.00 73 1016.3
20260905193042 78 30 4.0 6.0 0.00 0.00 0.00 73 1016.2
20260905191536 78 54 4.0 9.0 0.00 0.00 0.00 72 1016.0
20260905190044 79 347 3.0 6.0 0.00 0.00 0.00 73 1015.8
20260905184536 80 43 3.0 5.0 0.00 0.00 0.00 72 1015.6
20260905183035 81 38 0.0 6.0 0.00 0.00 0.00 71 1015.4
20260905181535 82 42 3.0 5.0 0.00 0.00 0.00 69 1015.2
20260905180048 84 39 2.0 4.0 0.00 0.00 0.00 65 1015.0
20260905174533 86 307 1.0 2.0 0.00 0.00 0.00 60 1014.9
20260905173032 87 301 1.0 3.0 0.00 0.00 0.00 59 1014.7
20260905171547 88 298 0.0 0.0 0.00 0.00 0.00 54 1014.6
20260905170031 88 298 0.0 1.0 0.00 0.00 0.00 56 1014.7
20260905164531 88 298 1.0 4.0 0.00 0.00 0.00 56 1014.7
20260905163030 89 327 0.0 2.0 0.00 0.00 0.00 54 1014.5
20260905161529 89 246 1.0 4.0 0.00 0.00 0.00 54 1014.6
20260905160047 89 248 1.0 3.0 0.00 0.00 0.00 56 1014.5
20260905154529 89 302 1.0 5.0 0.00 0.00 0.00 56 1014.6
20260905153033 89 250 2.0 9.0 0.00 0.00 0.00 55 1014.5
20260905151528 89 263 3.0 8.0 0.00 0.00 0.00 54 1014.6
20260905150027 89 217 2.0 5.0 0.00 0.00 0.00 55 1014.5
20260905144529 89 265 4.0 9.0 0.00 0.00 0.00 54 1014.7
20260905143025 89 243 4.0 7.0 0.00 0.00 0.00 53 1014.6
20260905141525 90 257 5.0 8.0 0.00 0.00 0.00 52 1014.7
20260905140023 90 300 3.0 9.0 0.00 0.00 0.00 51 1014.8
20260905134521 89 263 6.0 10.0 0.00 0.00 0.00 51 1014.8
20260905133025 89 252 3.0 7.0 0.00 0.00 0.00 52 1014.9
20260905131521 90 223 2.0 7.0 0.00 0.00 0.00 52 1015.2
20260905130019 90 217 2.0 6.0 0.00 0.00 0.00 54 1015.3
20260905124517 89 279 2.0 6.0 0.00 0.00 0.00 53 1015.3
20260905123014 89 241 1.0 7.0 0.00 0.00 0.00 56 1015.4
20260905121512 88 207 1.0 8.0 0.00 0.00 0.00 55 1015.5
20260905120023 87 294 4.0 9.0 0.00 0.00 0.00 56 1015.6
20260905114509 87 236 3.0 8.0 0.00 0.00 0.00 56 1015.7
20260905113007 87 240 3.0 8.0 0.00 0.00 0.00 57 1015.8
20260905111505 86 245 2.0 7.0 0.00 0.00 0.00 58 1015.8
20260905110011 85 250 1.0 6.0 0.00 0.00 0.00 57 1015.8
20260905104505 85 305 2.0 9.0 0.00 0.00 0.00 59 1015.8
20260905103104 84 298 3.0 9.0 0.00 0.00 0.00 63 1015.9
20260905101601 84 238 3.0 7.0 0.00 0.00 0.00 60 1016.0
20260905100100 83 256 2.0 7.0 0.00 0.00 0.00 61 1016.0
20260905094555 82 319 3.0 7.0 0.00 0.00 0.00 62 1016.1
20260905093107 82 232 2.0 5.0 0.00 0.00 0.00 62 1016.0
20260905091554 82 306 1.0 4.0 0.00 0.00 0.00 60 1016.0
20260905090047 80 295 1.0 3.0 0.00 0.00 0.00 65 1016.1
20260905084542 78 290 2.0 6.0 0.00 0.00 0.00 67 1016.0
20260905083040 77 347 3.0 9.0 0.00 0.00 0.00 69 1015.9
20260905081539 77 331 3.0 6.0 0.00 0.00 0.00 68 1015.8
20260905080039 77 347 1.0 4.0 0.00 0.00 0.00 68 1015.7
20260905074538 77 301 1.0 3.0 0.00 0.00 0.00 68 1015.6
20260905073038 76 186 0.0 0.0 0.00 0.00 0.00 70 1015.6
20260905071534 75 186 0.0 2.0 0.00 0.00 0.00 74 1015.6
20260905070044 73 186 0.0 1.0 0.00 0.00 0.00 77 1015.6
20260905064537 73 166 2.0 3.0 0.00 0.00 0.00 76 1015.5
20260905063022 72 55 0.0 2.0 0.00 0.00 0.00 76 1015.4
20260905061519 71 55 2.0 4.0 0.00 0.00 0.00 77 1015.4
20260905060021 70 45 0.0 0.0 0.00 0.00 0.00 78 1015.3
20260905054523 69 45 0.0 2.0 0.00 0.00 0.00 82 1015.2
20260905053010 67 29 3.0 5.0 0.00 0.00 0.00 83 1015.2
20260905051515 67 344 1.0 3.0 0.00 0.00 0.00 83 1015.0
20260905050006 67 48 1.0 3.0 0.00 0.00 0.00 83 1014.8
20260905044503 67 48 1.0 2.0 0.00 0.00 0.00 82 1014.8
20260905043002 67 48 0.0 4.0 0.00 0.00 0.00 82 1014.5
20260905041501 68 40 2.0 4.0 0.00 0.00 0.00 81 1014.5
20260905040001 68 22 3.0 6.0 0.00 0.00 0.00 80 1014.6
20260905034608 69 44 2.0 5.0 0.00 0.00 0.00 80 1014.5
20260905033058 68 41 4.0 6.0 0.00 0.00 0.00 80 1014.7
20260905031557 68 55 3.0 5.0 0.00 0.00 0.00 80 1014.8
20260905030116 68 26 2.0 5.0 0.00 0.00 0.00 80 1014.9
20260905024557 68 41 1.0 4.0 0.00 0.00 0.00 80 1015.0
20260905023055 68 42 1.0 3.0 0.00 0.00 0.00 80 1014.9
20260905021553 68 42 0.0 3.0 0.00 0.00 0.00 79 1014.8
20260905020052 68 42 0.0 2.0 0.00 0.00 0.00 79 1015.0
20260905014556 69 31 0.0 3.0 0.00 0.00 0.00 78 1015.0
20260905013052 68 5 2.0 5.0 0.00 0.00 0.00 78 1015.0
20260905011551 69 38 1.0 3.0 0.00 0.00 0.00 77 1015.0
20260905010047 69 38 3.0 4.0 0.00 0.00 0.00 76 1015.2
20260905004547 69 32 3.0 5.0 0.00 0.00 0.00 74 1015.1
20260905003044 69 34 2.0 5.0 0.00 0.00 0.00 74 1015.3
20260905001543 69 40 3.0 4.0 0.00 0.00 0.00 73 1015.4
20260905000042 69 40 3.0 5.0 0.00 0.00 0.00 73 1015.5
20260904234545 69 44 3.0 5.0 0.00 0.00 0.00 72 1015.6
20260904233037 69 45 2.0 5.0 0.00 0.00 0.00 72 1015.6
20260904231536 70 344 1.0 3.0 0.00 0.00 0.00 72 1015.6
20260904230035 70 340 2.0 5.0 0.00 0.00 0.00 72 1015.6
20260904224533 70 43 1.0 3.0 0.00 0.00 0.00 72 1015.8
20260904223043 70 44 3.0 6.0 0.00 0.00 0.00 72 1015.8
20260904221543 71 48 2.0 4.0 0.00 0.00 0.00 72 1015.6
20260904220026 71 49 2.0 4.0 0.00 0.00 0.00 72 1015.8
20260904214524 72 355 2.0 4.0 0.00 0.00 0.00 74 1015.8
20260904213024 72 44 2.0 5.0 0.00 0.00 0.00 73 1015.9
20260904211530 73 17 2.0 3.0 0.00 0.00 0.00 72 1016.0
20260904210023 74 42 1.0 4.0 0.00 0.00 0.00 72 1016.2
20260904204527 75 42 1.0 2.0 0.00 0.00 0.00 70 1016.2
20260904203030 75 44 0.0 3.0 0.00 0.00 0.00 71 1016.3